| time (UTC) | temp C | wind direction | speed KPH | gust KPH | rain 1hr cm | rain 24hr cm | rain mn cm | humidity % | barometer mb |
| 20260510091604 | 12 | 355 | 16.1 | 38.6 | 0.00 | 0.00 | 0.00 | 78 | 1015.8 |
| 20260510090105 | 11 | 17 | 19.3 | 43.5 | 0.00 | 0.00 | 0.00 | 79 | 1015.9 |
| 20260510084602 | 11 | 9 | 20.9 | 35.4 | 0.00 | 0.00 | 0.00 | 80 | 1016.0 |
| 20260510083101 | 11 | 11 | 14.5 | 35.4 | 0.00 | 0.00 | 0.00 | 81 | 1016.0 |
| 20260510081600 | 11 | 350 | 17.7 | 37.0 | 0.00 | 0.00 | 0.00 | 82 | 1016.2 |
| 20260510074559 | 10 | 340 | 16.1 | 35.4 | 0.00 | 0.00 | 0.00 | 84 | 1016.2 |
| 20260510073057 | 10 | 53 | 16.1 | 40.2 | 0.00 | 0.00 | 0.00 | 84 | 1016.0 |
| 20260510071559 | 10 | 21 | 14.5 | 37.0 | 0.00 | 0.00 | 0.00 | 84 | 1016.0 |
| 20260510070107 | 10 | 355 | 17.7 | 35.4 | 0.00 | 0.00 | 0.00 | 84 | 1016.2 |
| 20260510064610 | 10 | 62 | 16.1 | 37.0 | 0.00 | 0.00 | 0.00 | 84 | 1016.3 |
| 20260510063057 | 9 | 15 | 16.1 | 32.2 | 0.00 | 0.00 | 0.00 | 85 | 1016.5 |
| 20260510061555 | 9 | 336 | 14.5 | 29.0 | 0.00 | 0.00 | 0.00 | 86 | 1016.4 |
| 20260510060054 | 9 | 355 | 12.9 | 33.8 | 0.00 | 0.00 | 0.00 | 86 | 1016.2 |
| 20260510054602 | 9 | 9 | 14.5 | 30.6 | 0.00 | 0.00 | 0.00 | 87 | 1016.2 |
| 20260510053057 | 9 | 5 | 12.9 | 38.6 | 0.00 | 0.00 | 0.00 | 87 | 1016.3 |
| 20260510051605 | 9 | 40 | 12.9 | 30.6 | 0.00 | 0.00 | 0.00 | 87 | 1016.3 |
| 20260510044609 | 8 | 355 | 12.9 | 30.6 | 0.00 | 0.00 | 0.00 | 88 | 1016.5 |
| 20260510043057 | 8 | 351 | 12.9 | 32.2 | 0.00 | 0.00 | 0.00 | 88 | 1016.3 |
| 20260510041607 | 9 | 5 | 16.1 | 29.0 | 0.00 | 0.00 | 0.00 | 88 | 1016.3 |
| 20260510040057 | 9 | 336 | 14.5 | 35.4 | 0.00 | 0.00 | 0.00 | 87 | 1016.2 |
| 20260510034604 | 9 | 19 | 14.5 | 30.6 | 0.00 | 0.00 | 0.00 | 88 | 1016.2 |
| 20260510033059 | 10 | 10 | 16.1 | 27.4 | 0.00 | 0.00 | 0.00 | 87 | 1016.3 |
| 20260510031604 | 10 | 18 | 12.9 | 29.0 | 0.00 | 0.00 | 0.00 | 87 | 1016.4 |
| 20260510030105 | 10 | 30 | 11.3 | 22.5 | 0.00 | 0.00 | 0.00 | 86 | 1016.4 |
| 20260510024557 | 10 | 355 | 11.3 | 24.1 | 0.00 | 0.00 | 0.00 | 85 | 1016.7 |
| 20260510023056 | 10 | 5 | 11.3 | 25.7 | 0.00 | 0.00 | 0.00 | 84 | 1016.7 |
| 20260510021557 | 10 | 17 | 11.3 | 29.0 | 0.00 | 0.00 | 0.00 | 83 | 1016.8 |
| 20260510020055 | 10 | 5 | 12.9 | 27.4 | 0.00 | 0.00 | 0.00 | 83 | 1016.6 |
| 20260510014559 | 10 | 32 | 11.3 | 27.4 | 0.00 | 0.00 | 0.00 | 82 | 1016.8 |
| 20260510013100 | 10 | 350 | 9.7 | 32.2 | 0.00 | 0.00 | 0.00 | 82 | 1016.7 |
| 20260510011557 | 10 | 24 | 11.3 | 24.1 | 0.00 | 0.00 | 0.00 | 82 | 1016.9 |
| 20260510010054 | 10 | 5 | 9.7 | 22.5 | 0.00 | 0.00 | 0.00 | 82 | 1017.0 |
| 20260510004555 | 10 | 5 | 11.3 | 20.9 | 0.00 | 0.00 | 0.00 | 81 | 1017.0 |
| 20260510003101 | 10 | 18 | 9.7 | 22.5 | 0.00 | 0.00 | 0.00 | 81 | 1017.1 |
| 20260510001556 | 10 | 338 | 9.7 | 20.9 | 0.00 | 0.00 | 0.00 | 80 | 1017.1 |
| 20260510000111 | 10 | 78 | 11.3 | 20.9 | 0.00 | 0.00 | 0.00 | 79 | 1017.2 |
| 20260509234614 | 10 | 355 | 9.7 | 22.5 | 0.00 | 0.00 | 0.00 | 79 | 1017.2 |
| 20260509233058 | 10 | 27 | 9.7 | 24.1 | 0.00 | 0.00 | 0.00 | 78 | 1017.2 |
| 20260509231611 | 10 | 348 | 8.0 | 20.9 | 0.00 | 0.00 | 0.00 | 78 | 1017.5 |
| 20260509230108 | 10 | 5 | 8.0 | 20.9 | 0.00 | 0.00 | 0.00 | 77 | 1017.5 |
| 20260509224557 | 10 | 319 | 9.7 | 20.9 | 0.00 | 0.00 | 0.00 | 76 | 1017.4 |
| 20260509223057 | 10 | 33 | 11.3 | 20.9 | 0.00 | 0.00 | 0.00 | 75 | 1017.2 |
| 20260509221559 | 10 | 355 | 8.0 | 17.7 | 0.00 | 0.00 | 0.00 | 74 | 1017.4 |
| 20260509220057 | 10 | 87 | 9.7 | 20.9 | 0.00 | 0.00 | 0.00 | 72 | 1017.5 |
| 20260509214555 | 10 | 333 | 12.9 | 24.1 | 0.00 | 0.00 | 0.00 | 70 | 1017.4 |
| 20260509213056 | 11 | 360 | 12.9 | 27.4 | 0.00 | 0.00 | 0.00 | 68 | 1017.3 |
| 20260509211609 | 11 | 355 | 8.0 | 22.5 | 0.00 | 0.00 | 0.00 | 67 | 1017.3 |
| 20260509210111 | 11 | 30 | 8.0 | 24.1 | 0.00 | 0.00 | 0.00 | 65 | 1017.3 |
| 20260509204557 | 11 | 41 | 9.7 | 20.9 | 0.00 | 0.00 | 0.00 | 64 | 1017.2 |
| 20260509203100 | 11 | 19 | 9.7 | 24.1 | 0.00 | 0.00 | 0.00 | 65 | 1017.2 |
| 20260509201602 | 12 | 19 | 8.0 | 24.1 | 0.00 | 0.00 | 0.00 | 64 | 1017.2 |
| 20260509200109 | 12 | 46 | 11.3 | 22.5 | 0.00 | 0.00 | 0.00 | 65 | 1017.1 |
| 20260509194603 | 12 | 5 | 11.3 | 24.1 | 0.00 | 0.00 | 0.00 | 64 | 1017.1 |
| 20260509193057 | 12 | 32 | 11.3 | 22.5 | 0.00 | 0.00 | 0.00 | 62 | 1017.0 |
| 20260509191556 | 13 | 11 | 9.7 | 20.9 | 0.00 | 0.00 | 0.00 | 60 | 1016.9 |
| 20260509190108 | 13 | 338 | 12.9 | 24.1 | 0.00 | 0.00 | 0.00 | 59 | 1016.7 |
| 20260509184605 | 14 | 30 | 9.7 | 20.9 | 0.00 | 0.00 | 0.00 | 58 | 1016.7 |
| 20260509183059 | 15 | 15 | 9.7 | 24.1 | 0.00 | 0.00 | 0.00 | 58 | 1016.6 |
| 20260509181603 | 15 | 355 | 8.0 | 17.7 | 0.00 | 0.00 | 0.00 | 61 | 1016.8 |
| 20260509180105 | 16 | 15 | 6.4 | 20.9 | 0.00 | 0.00 | 0.00 | 58 | 1016.7 |
| 20260509174558 | 16 | 42 | 8.0 | 22.5 | 0.00 | 0.00 | 0.00 | 59 | 1016.7 |
| 20260509173101 | 17 | 69 | 9.7 | 24.1 | 0.00 | 0.00 | 0.00 | 58 | 1016.4 |
| 20260509171557 | 17 | 355 | 8.0 | 27.4 | 0.00 | 0.00 | 0.00 | 57 | 1016.2 |
| 20260509164558 | 20 | 40 | 11.3 | 27.4 | 0.00 | 0.00 | 0.00 | 53 | 1016.5 |
| 20260509163104 | 20 | 36 | 8.0 | 24.1 | 0.00 | 0.00 | 0.00 | 54 | 1016.4 |
| 20260509161558 | 20 | 113 | 11.3 | 22.5 | 0.00 | 0.00 | 0.00 | 52 | 1016.4 |
| 20260509160058 | 20 | 51 | 12.9 | 22.5 | 0.00 | 0.00 | 0.00 | 48 | 1016.3 |
| 20260509154608 | 21 | 71 | 8.0 | 24.1 | 0.00 | 0.00 | 0.00 | 48 | 1016.4 |
| 20260509153057 | 21 | 49 | 6.4 | 20.9 | 0.00 | 0.00 | 0.00 | 50 | 1016.6 |
| 20260509151607 | 21 | 28 | 6.4 | 20.9 | 0.00 | 0.00 | 0.00 | 48 | 1017.0 |
| 20260509150110 | 21 | 61 | 9.7 | 19.3 | 0.00 | 0.00 | 0.00 | 49 | 1016.9 |
| 20260509144601 | 21 | 123 | 8.0 | 20.9 | 0.00 | 0.00 | 0.00 | 48 | 1017.1 |
| 20260509143106 | 21 | 80 | 9.7 | 20.9 | 0.00 | 0.00 | 0.00 | 49 | 1016.8 |
| 20260509141557 | 21 | 83 | 11.3 | 24.1 | 0.00 | 0.00 | 0.00 | 49 | 1016.7 |
| 20260509140104 | 21 | 59 | 6.4 | 22.5 | 0.00 | 0.00 | 0.00 | 49 | 1016.6 |
| 20260509134558 | 21 | 76 | 8.0 | 27.4 | 0.00 | 0.00 | 0.00 | 50 | 1016.5 |
| 20260509133106 | 21 | 15 | 11.3 | 24.1 | 0.00 | 0.00 | 0.00 | 50 | 1016.8 |
| 20260509131556 | 21 | 54 | 11.3 | 22.5 | 0.00 | 0.00 | 0.00 | 50 | 1016.8 |
| 20260509130059 | 21 | 57 | 8.0 | 25.7 | 0.00 | 0.00 | 0.00 | 50 | 1016.9 |
| 20260509124600 | 20 | 5 | 11.3 | 25.7 | 0.00 | 0.00 | 0.00 | 52 | 1016.8 |
| 20260509123104 | 21 | 49 | 8.0 | 25.7 | 0.00 | 0.00 | 0.00 | 52 | 1017.0 |
| 20260509121601 | 21 | 327 | 9.7 | 24.1 | 0.00 | 0.00 | 0.00 | 52 | 1017.1 |
| 20260509120104 | 21 | 341 | 9.7 | 24.1 | 0.00 | 0.00 | 0.00 | 54 | 1017.3 |
| 20260509114605 | 21 | 53 | 8.0 | 27.4 | 0.00 | 0.00 | 0.00 | 54 | 1017.6 |
| 20260509113106 | 20 | 96 | 8.0 | 22.5 | 0.00 | 0.00 | 0.00 | 55 | 1017.7 |
| 20260509111556 | 20 | 44 | 6.4 | 17.7 | 0.00 | 0.00 | 0.00 | 57 | 1017.9 |
| 20260509110056 | 20 | 54 | 11.3 | 24.1 | 0.00 | 0.00 | 0.00 | 58 | 1018.0 |
| 20260509104554 | 20 | 29 | 4.8 | 22.5 | 0.00 | 0.00 | 0.00 | 59 | 1018.0 |
| 20260509103055 | 20 | 53 | 8.0 | 19.3 | 0.00 | 0.00 | 0.00 | 58 | 1018.1 |
| 20260509101558 | 20 | 85 | 6.4 | 20.9 | 0.00 | 0.00 | 0.00 | 57 | 1018.2 |
| 20260509100056 | 19 | 80 | 9.7 | 19.3 | 0.00 | 0.00 | 0.00 | 58 | 1018.2 |
| 20260509094601 | 20 | 57 | 6.4 | 24.1 | 0.00 | 0.00 | 0.00 | 60 | 1018.1 |
| 20260509093059 | 19 | 84 | 6.4 | 20.9 | 0.00 | 0.00 | 0.00 | 62 | 1018.2 |